GOES 18 [+]

Last updated on Fri Dec 29 2023 00:02:21 GMT+0000 (Coordinated Universal Time)

1 51850U 22021A 23362.54160014 .00000106 00000+0 00000+0 0 9998 2 51850 0.0166 185.9476 0000618 62.3604 266.4082 1.00271793 6767

Satellite not in orbit

GOES 18 [+]